Airfield :
LOGIN :

Register | Disclaimer

   EN    FR    IT 

 










Legend :    VFR   Marginal VFR   IFR   Intensive IFR   Very Intensive IFR
Visi :
Ceiling :
>= 8 km
>= 3000ft
5 to 8 km
1000 to 3000 ft
1500m to 5 km
500 to 1000 ft
800 to 1500m
200 to 500 ft
< 800m
< 200 ft
Symbols :   Thunderstorms  Fog  Heavy snow  Heavy precipitations  Wind > 20 kt
SIGMETs :     Misc.  Thunderstorms  Icing  Turbulence  Mountain Waves  Volcanic Ashes






- Airport Elevation : 1202 ft
- IATA code : IGS


ETSI - Ingolstadt

CURRENT METAR :
  • 160820Z 05002KT 9999 FEW018 BKN028 03/M02 Q1023 BLU BLU TEMPO WHT

EXPIRED METARs :
  • 160720Z 32003KT 9999 FEW018 BKN025 BKN080 02/M02 Q1023 BLU BLU TEMPO WHT
  • 160620Z 23002KT 9999 SCT080 01/M03 Q1023 BLU+BLU+ BECMG BLU

TAF TAF ETSI
Valid from the 16 at 08:00 until the 16 at 17:00 UTC


160720Z 1608/1617 01005KT 9999 NSW SCT030 BKN080
TEMPO 1608/1610 VRB03KT 9999 NSW BKN020 BKN080



MET'MAP, your aeronautical weather chart ! - Copyright ORBIFLY December 2007 - Disclaimer

ORBIFLY MET'MAP TEAM :

Programming & Development : Alexandra Zaïnal
Concept & original design : Baudouin d'Aumeries
Assistance for programming : Marc-Olivier Méhu
Technical & hardware support : Manuel Goepfert

Contact : metmap@orbifly.com




SOURCES & CREDITS :

   NOAA